Location: Lone Wolf Observatory
(41.0360°N, 89.2260°W)
Time: 04:53:15
(UTC-05:00)

Amateur Radio Satellites - All Passes

Search period start: 24 May 2016 04:23
Search period end: 25 May 2016 04:23
Location: Lone Wolf Observatory, 41.0360°N, 89.2260°W

Satellite Date Start Highest point End Downlink Frequencies (MHz)
Time Altitude Azimuth
Cosmos 2504 24 May 04:29:35 04:36:59 34° 72° (ENE) 04:44:42 435.465 / 435.565
KKS-1 24 May 04:34:05 04:38:05 32° 263° (W) 04:42:06 437.445
YUBILEINY 24 May 04:42:45 04:51:23 67° 268° (W) 05:00:03 435.215
Gurwin Techsat 1B 24 May 04:47:48 04:50:46 15° 300° (WNW) 04:53:44 435.225
STARS 24 May 05:22:00 05:25:11 19° 266° (W) 05:28:23 437.465
ITAMSAT 1 24 May 05:30:42 05:33:33 15° 300° (WNW) 05:36:25 435.822/435.867
CUBESAT XI-V 24 May 05:32:41 05:37:20 81° 75° (ENE) 05:42:03 437.345
ISS 24 May 05:34:04 05:37:20 85° 30° (NNE) 05:40:36 145.825
Cosmos 2491 24 May 05:35:13 05:43:56 61° 282° (WNW) 05:52:41 435.465 / 435.565
AO-7 24 May 05:44:18 05:52:25 57° 295° (WNW) 06:00:31 29.400- 29.500
HORYU 2 24 May 05:51:19 05:55:46 87° 103° (ESE) 06:00:12 437.375
PHONESAT 2.4 24 May 05:55:06 05:56:02 11° 213° (SSW) 05:56:58 2401.200-2431.200
NOAA 15 24 May 05:57:46 06:01:29 19° 92° (E) 06:05:11 137.62
BRITE-PL 24 May 06:07:58 06:11:32 18° 89° (E) 06:14:55 437.365/2234.400
AO-85 24 May 06:10:05 06:13:56 20° 109° (ESE) 06:17:45 145.980
Cosmos 2504 24 May 06:22:36 06:30:36 53° 270° (W) 06:39:00 435.465 / 435.565
RS-15 24 May 06:23:09 06:28:50 15° 266° (W) 06:34:32 29.354- 29.394
CUTE-I 24 May 06:34:39 06:39:16 29° 96° (E) 06:43:53 437.470
YUBILEINY 24 May 06:44:14 06:46:22 11° 287° (WNW) 06:48:31 435.215
STRAND 1 24 May 06:50:52 06:55:41 45° 70° (ENE) 07:00:32 437.568
NOAA 18 24 May 06:52:09 06:57:28 50° 100° (E) 07:02:47 137.9125
GOMX 1 24 May 06:53:10 06:56:53 22° 92° (E) 07:00:24 467.674
ISS 24 May 07:12:47 07:13:18 10° 231° (SW) 07:13:49 145.825
PRISM 24 May 07:24:01 07:26:30 16° 64° (ENE) 07:29:01 437.425
Cubesat XI-IV 24 May 07:26:28 07:31:51 86° 106° (ESE) 07:37:13 437.490
LilacSat-2 24 May 07:30:01 07:33:46 69° 285° (WNW) 07:37:31 437.200
HO-68 24 May 07:34:35 07:38:04 14° 88° (E) 07:41:32 435.675
NOAA 15 24 May 07:36:24 07:41:34 53° 289° (WNW) 07:46:42 137.62
AO-7 24 May 07:39:54 07:43:24 13° 316° (NW) 07:46:54 29.400- 29.500
Cosmos 2491 24 May 07:40:00 07:42:53 12° 305° (NW) 07:45:46 435.465 / 435.565
BRITE-PL 24 May 07:45:16 07:50:23 51° 288° (WNW) 07:55:06 437.365/2234.400
AO-85 24 May 07:48:36 07:54:01 63° 305° (NW) 07:59:20 145.980
AIST 1 24 May 07:48:50 07:50:15 11° 68° (ENE) 07:51:39
DOVE 4 24 May 08:01:34 08:05:58 53° 99° (E) 08:10:07 437.250
AUBIESAT-1 24 May 08:09:54 08:11:32 13° 98° (E) 08:13:10 437.475
M-CUBED/EXP-1 PRIME 24 May 08:12:28 08:14:46 18° 100° (E) 08:17:02 437.505
CUTE-I 24 May 08:14:29 08:19:20 36° 292° (WNW) 08:24:10 437.470
CANX-2 24 May 08:29:52 08:33:46 34° 97° (E) 08:37:40 2200.000
GOMX 1 24 May 08:30:42 08:35:06 36° 291° (WNW) 08:39:12 467.674
STRAND 1 24 May 08:31:14 08:35:03 21° 266° (W) 08:38:55 437.568
NOAA 18 24 May 08:33:36 08:37:46 23° 297° (WNW) 08:41:56 137.9125
GONETS M04 24 May 08:36:01 08:43:32 31° 69° (ENE) 08:50:58
SEEDS 24 May 08:40:44 08:44:26 28° 96° (E) 08:48:06 437.485
CUBEBUG 2 24 May 08:42:10 08:43:51 12° 91° (E) 08:45:32 437.445
PRISM 24 May 08:57:29 09:01:26 45° 260° (W) 09:05:27 437.425
CUTE 1.7 + AOD 2 24 May 08:57:40 09:01:54 62° 100° (E) 09:06:08 437.475
CINEMA 3 24 May 09:00:58 09:05:10 70° 102° (ESE) 09:09:16 145.822/145.860
Cubesat XI-IV 24 May 09:08:42 09:11:11 13° 301° (WNW) 09:13:38 437.490
SO-50 24 May 09:15:46 09:19:19 20° 42° (NE) 09:22:45 436.795
Cosmos 2499 24 May 09:15:52 09:23:25 34° 71° (ENE) 09:31:12 435.465 / 435.565
UWE-3 24 May 09:17:47 09:21:02 22° 94° (E) 09:24:17 435.000/436.395/437.385
HO-68 24 May 09:19:31 09:26:44 84° 107° (ESE) 09:33:56 435.675
AIST 1 24 May 09:23:59 09:28:18 63° 266° (W) 09:32:35
ANTELSAT 24 May 09:28:49 09:31:51 19° 66° (ENE) 09:34:52 437.575/2403.000
AO-85 24 May 09:32:49 09:35:32 14° 324° (NW) 09:38:10 145.980
FUNcube-1 24 May 09:33:06 09:36:13 20° 94° (E) 09:39:21 145.935
COMPASS 1 24 May 09:33:47 09:38:01 83° 102° (ESE) 09:42:14 437.405
AAUSAT CUBESAT 2 24 May 09:40:13 09:44:26 78° 103° (ESE) 09:48:37 437.432
DOVE 4 24 May 09:40:42 09:43:09 15° 298° (WNW) 09:45:32 437.250
AUBIESAT-1 24 May 09:43:13 09:46:12 30° 294° (WNW) 09:49:07 437.475
O/OREOS (USA 219) 24 May 09:44:09 09:47:45 23° 102° (ESE) 09:51:20 437.305
M-CUBED/EXP-1 PRIME 24 May 09:46:43 09:49:21 22° 296° (WNW) 09:51:57 437.505
CANX-2 24 May 10:06:13 10:09:25 21° 293° (WNW) 10:12:37 2200.000
SEEDS 24 May 10:16:34 10:20:00 24° 292° (WNW) 10:23:26 437.485
CUBEBUG 2 24 May 10:16:46 10:20:48 52° 286° (WNW) 10:24:52 437.445
PCSat 24 May 10:20:28 10:25:30 41° 112° (ESE) 10:30:34 145.827
Oscar 11 24 May 10:21:35 10:25:57 88° 104° (ESE) 10:30:17 145.826/435.025
UNISAT 6 24 May 10:22:27 10:26:50 71° 76° (ENE) 10:31:10 437.425
DUCHIFAT 1 24 May 10:23:03 10:24:37 12° 63° (ENE) 10:26:11 145.980
ZACube-1 24 May 10:28:11 10:32:22 87° 283° (WNW) 10:36:35 437.345
TIGRISAT 24 May 10:31:20 10:35:44 83° 78° (ENE) 10:40:05 435.000
GONETS M04 24 May 10:32:20 10:40:47 58° 269° (W) 10:49:12
CUTE 1.7 + AOD 2 24 May 10:35:26 10:37:13 12° 297° (WNW) 10:39:01 437.475
CINEMA 3 24 May 10:41:01 10:41:42 10° 299° (WNW) 10:42:23 145.822/145.860
DELFI C3 24 May 10:42:18 10:46:21 73° 102° (ESE) 10:50:22 145.870
UWE-3 24 May 10:53:53 10:57:30 30° 290° (WNW) 11:01:09 435.000/436.395/437.385
POPSAT HIP 1 24 May 10:54:21 10:57:58 28° 69° (ENE) 11:01:36 437.405
QB50P1 24 May 10:55:05 10:58:45 29° 69° (ENE) 11:02:25 145.935-145.965
SO-50 24 May 10:55:34 11:00:11 58° 242° (WSW) 11:04:37 436.795
QB50P2 24 May 10:55:54 10:59:39 31° 70° (ENE) 11:03:24 145.880/145.840
BUGSAT 1 24 May 10:56:47 10:58:49 13° 64° (ENE) 11:00:52 437.445
JAS-2 24 May 10:56:48 10:59:54 13° 50° (NE) 11:03:04 435.910
POLYITAN 1 24 May 10:58:18 11:02:04 31° 70° (ENE) 11:05:50 437.675
CUSAT 1 24 May 11:01:03 11:04:06 14° 76° (ENE) 11:07:25 437.405
ANTELSAT 24 May 11:04:09 11:08:18 40° 261° (W) 11:12:23 437.575/2403.000
Cosmos 2499 24 May 11:08:36 11:16:49 55° 269° (W) 11:25:21 435.465 / 435.565
HO-68 24 May 11:08:44 11:13:35 20° 304° (NW) 11:18:27 435.675
FUNcube-1 24 May 11:08:49 11:12:31 32° 289° (WNW) 11:16:16 145.935
HUMSAT D 24 May 11:09:49 11:13:56 65° 100° (E) 11:18:05 437.325/437.525
NANOSAT C BR1 24 May 11:15:17 11:19:20 46° 72° (ENE) 11:23:23 145.865
O/OREOS (USA 219) 24 May 11:22:46 11:26:57 34° 299° (WNW) 11:31:07 437.305
ESTCUBE 1 24 May 11:25:44 11:28:52 18° 93° (E) 11:31:59 437.505/2401.250
BEESAT 3 24 May 11:49:48 11:52:32 18° 111° (ESE) 11:55:17 437.485
DUCHIFAT 1 24 May 11:55:34 11:59:46 64° 258° (WSW) 12:03:59 145.980
DANDE 24 May 12:01:32 12:05:02 18° 79° (E) 12:09:08 436.750
VELOX 1 24 May 12:03:17 12:07:12 30° 96° (E) 12:11:04 145.980
PCSat 24 May 12:04:14 12:08:59 30° 310° (NW) 12:13:46 145.827
CUBEBUG 1 24 May 12:06:21 12:10:20 33° 97° (E) 12:14:16 437.445
DX 1 24 May 12:11:01 12:14:53 30° 97° (E) 12:18:41 434.975-435.025
50 SAT 24 May 12:18:00 12:21:38 50° 100° (E) 12:25:15 437.505
BUGSAT 1 24 May 12:29:35 12:33:44 56° 259° (W) 12:37:53 437.445
POPSAT HIP 1 24 May 12:30:13 12:33:43 24° 265° (W) 12:37:13 437.405
QB50P1 24 May 12:31:04 12:34:30 24° 265° (W) 12:37:57 145.935-145.965
QB50P2 24 May 12:32:09 12:35:28 22° 265° (W) 12:38:48 145.880/145.840
POLYITAN 1 24 May 12:34:39 12:37:55 21° 266° (W) 12:41:12 437.675
JAS-2 24 May 12:36:13 12:43:15 60° 70° (ENE) 12:50:53 435.910
AISAT 24 May 12:38:30 12:42:57 78° 103° (ESE) 12:47:21 437.250
CUSAT 1 24 May 12:38:49 12:44:41 87° 95° (E) 12:52:09 437.405
BEESAT 2 24 May 12:44:02 12:47:46 41° 116° (ESE) 12:51:32 435.950
HUMSAT D 24 May 12:47:46 12:49:02 11° 297° (WNW) 12:50:19 437.325/437.525
Gurwin Techsat 1B 24 May 12:50:01 12:53:06 16° 60° (ENE) 12:56:11 435.225
SPROUT 24 May 12:50:29 12:54:29 38° 98° (E) 12:58:27 437.525
NANOSAT C BR1 24 May 12:52:53 12:55:17 15° 268° (W) 12:57:43 145.865
Oscar 19 24 May 12:55:07 12:59:55 39° 69° (ENE) 13:04:43 437.125/150
ESTCUBE 1 24 May 13:01:32 13:05:51 43° 289° (WNW) 13:10:09 437.505/2401.250
UKube-1 24 May 13:06:59 13:11:19 79° 286° (WNW) 13:15:38 .
AO-7 24 May 13:07:28 13:07:51 10° 40° (NE) 13:08:15 29.400- 29.500
BEESAT 3 24 May 13:26:16 13:29:57 38° 308° (NW) 13:33:41 437.485
TISAT 1 24 May 13:28:45 13:32:21 27° 96° (E) 13:35:55 437.305
ITAMSAT 1 24 May 13:30:56 13:33:43 15° 60° (ENE) 13:36:30 435.822/435.867
VELOX 1 24 May 13:39:54 13:43:32 25° 293° (WNW) 13:47:09 145.980
DANDE 24 May 13:41:53 13:46:51 60° 285° (WNW) 13:53:29 436.750
CUBEBUG 1 24 May 13:43:01 13:46:26 22° 293° (WNW) 13:49:49 437.445
DX 1 24 May 13:47:23 13:50:56 24° 293° (WNW) 13:54:26 434.975-435.025
Cosmos 2491 24 May 13:51:46 13:55:42 13° 57° (ENE) 13:59:37 435.465 / 435.565
50 SAT 24 May 13:53:40 13:54:56 11° 296° (WNW) 13:56:11 437.505
SWISSCUBE 24 May 14:02:09 14:04:40 14° 91° (E) 14:07:10 437.505
ITUPSAT 1 24 May 14:06:22 14:08:47 14° 91° (E) 14:11:12 437.325
AISAT 24 May 14:17:38 14:18:46 11° 299° (WNW) 14:19:54 437.250
JAS-2 24 May 14:22:42 14:28:41 28° 269° (W) 14:35:06 435.910
BEESAT 2 24 May 14:22:48 14:25:47 20° 314° (NW) 14:28:47 435.950
AIST 2 24 May 14:23:16 14:26:52 30° 114° (ESE) 14:30:30 435.215
CUSAT 1 24 May 14:23:56 14:28:06 18° 302° (WNW) 14:32:47 437.405
Gurwin Techsat 1B 24 May 14:27:08 14:32:26 72° 258° (WSW) 14:37:46 435.225
SPROUT 24 May 14:27:12 14:30:09 18° 294° (WNW) 14:33:06 437.525
BEESAT 24 May 14:31:09 14:35:07 25° 95° (E) 14:39:03 436.000
Oscar 19 24 May 14:35:02 14:39:18 26° 265° (W) 14:43:37 437.125/150
AO-85 24 May 14:41:44 14:44:54 17° 39° (NE) 14:47:53 145.980
AO-7 24 May 14:50:46 14:58:29 45° 62° (ENE) 15:06:14 29.400- 29.500
TISAT 1 24 May 15:04:31 15:07:53 24° 292° (WNW) 15:11:13 437.305
ITAMSAT 1 24 May 15:07:23 15:12:32 74° 257° (WSW) 15:17:44 435.822/435.867
SWISSCUBE 24 May 15:38:07 15:42:51 61° 287° (WNW) 15:47:34 437.505
ITUPSAT 1 24 May 15:42:16 15:47:01 63° 287° (WNW) 15:51:46 437.325
Cosmos 2491 24 May 15:45:39 15:54:26 69° 80° (E) 16:03:05 435.465 / 435.565
YUBILEINY 24 May 15:48:17 15:55:29 30° 83° (E) 16:02:40 435.215
AIST 2 24 May 16:01:47 16:05:20 27° 312° (NW) 16:08:54 435.215
BEESAT 24 May 16:08:38 16:12:55 34° 291° (WNW) 16:17:13 436.000
MOZHAYETS 4 24 May 16:14:09 16:18:08 28° 95° (E) 16:22:06
AO-85 24 May 16:21:19 16:25:59 71° 240° (WSW) 16:30:12 145.980
RS-15 24 May 16:21:57 16:29:17 20° 98° (E) 16:36:48 29.354- 29.394
KKS-1 24 May 16:24:35 16:28:52 47° 100° (E) 16:33:08 437.445
NOAA 18 24 May 16:41:22 16:43:59 14° 58° (ENE) 16:46:36 137.9125
AO-7 24 May 16:43:33 16:51:15 42° 261° (W) 16:59:02 29.400- 29.500
HORYU 2 24 May 16:48:56 16:53:21 79° 74° (ENE) 16:57:47 437.375
STARS 24 May 17:09:56 17:14:19 76° 103° (ESE) 17:18:40 437.465
Cosmos 2504 24 May 17:09:58 17:15:25 24° 82° (E) 17:21:01 435.465 / 435.565
Cubesat XI-IV 24 May 17:10:37 17:14:12 19° 62° (ENE) 17:17:49 437.490
NOAA 15 24 May 17:17:22 17:21:59 31° 66° (ENE) 17:26:36 137.62
BRITE-PL 24 May 17:17:27 17:21:53 25° 65° (ENE) 17:26:22 437.365/2234.400
CUBESAT XI-V 24 May 17:30:09 17:33:41 21° 93° (E) 17:37:13 437.345
YUBILEINY 24 May 17:43:13 17:51:43 58° 283° (WNW) 18:00:17 435.215
Cosmos 2491 24 May 17:43:46 17:50:25 25° 279° (W) 17:57:03 435.465 / 435.565
MOZHAYETS 4 24 May 17:51:16 17:55:14 29° 291° (WNW) 17:59:11
CUTE-I 24 May 17:56:14 18:01:17 47° 70° (ENE) 18:06:22 437.470
GOMX 1 24 May 17:59:55 18:04:33 29° 67° (ENE) 18:09:09 467.674
KKS-1 24 May 18:02:13 18:05:03 17° 296° (WNW) 18:07:53 437.445
HO-68 24 May 18:05:38 18:08:12 12° 50° (NE) 18:10:47 435.675
LilacSat-2 24 May 18:11:34 18:15:17 53° 75° (ENE) 18:19:01 437.200
NOAA 18 24 May 18:18:24 18:23:52 87° 255° (WSW) 18:29:22 137.9125
RS-15 24 May 18:28:24 18:39:43 84° 119° (ESE) 18:51:43 29.354- 29.394
Cubesat XI-IV 24 May 18:48:34 18:53:48 59° 259° (W) 18:59:04 437.490
STARS 24 May 18:48:58 18:50:02 11° 299° (WNW) 18:51:07 437.465
BRITE-PL 24 May 18:54:33 18:59:57 50° 262° (W) 19:05:30 437.365/2234.400
AUBIESAT-1 24 May 18:54:52 18:58:11 23° 64° (ENE) 19:01:20 437.475
NOAA 15 24 May 18:56:54 19:01:39 34° 263° (W) 19:06:28 137.62
M-CUBED/EXP-1 PRIME 24 May 18:57:58 19:01:44 31° 66° (ENE) 19:05:16 437.505
Cosmos 2504 24 May 19:01:03 19:08:06 59° 282° (WNW) 19:15:31 435.465 / 435.565
STRAND 1 24 May 19:02:44 19:05:41 15° 91° (E) 19:08:38 437.568
DOVE 4 24 May 19:05:38 19:10:47 57° 73° (ENE) 19:15:48 437.250
CUBESAT XI-V 24 May 19:06:48 19:11:13 40° 289° (WNW) 19:15:35 437.345
PCSat 24 May 19:08:16 19:13:11 34° 51° (NE) 19:18:05 145.827
CANX-2 24 May 19:22:51 19:26:14 24° 68° (ENE) 19:29:38 2200.000
SEEDS 24 May 19:32:54 19:35:56 20° 67° (ENE) 19:38:59 437.485
GOMX 1 24 May 19:37:18 19:42:24 39° 263° (W) 19:47:32 467.674
CUTE-I 24 May 19:37:33 19:41:33 22° 267° (W) 19:45:35 437.470
CUBEBUG 2 24 May 19:40:53 19:42:31 12° 63° (ENE) 19:44:08 437.445
HO-68 24 May 19:47:30 19:54:31 62° 69° (ENE) 20:01:33 435.675
YUBILEINY 24 May 19:49:17 19:50:45 10° 306° (NW) 19:52:14 435.215
LilacSat-2 24 May 19:49:31 19:49:55 10° 270° (W) 19:50:19 437.200
CUTE 1.7 + AOD 2 24 May 19:50:06 19:54:03 41° 72° (ENE) 19:58:02 437.475
O/OREOS (USA 219) 24 May 19:53:18 19:57:35 43° 63° (ENE) 20:01:50 437.305
CINEMA 3 24 May 20:01:39 20:06:26 64° 75° (ENE) 20:11:01 145.822/145.860
NOAA 18 24 May 20:04:24 20:05:16 10° 272° (W) 20:06:06 137.9125
BEESAT 3 24 May 20:07:02 20:09:08 14° 42° (NE) 20:11:13 437.485
UWE-3 24 May 20:15:07 20:18:09 19° 67° (ENE) 20:21:08 435.000/436.395/437.385
COMPASS 1 24 May 20:24:11 20:28:11 52° 74° (ENE) 20:32:14 437.405
AUBIESAT-1 24 May 20:28:48 20:32:33 30° 257° (WSW) 20:36:05 437.475
FUNcube-1 24 May 20:29:12 20:31:53 17° 66° (ENE) 20:34:33 145.935
AAUSAT CUBESAT 2 24 May 20:30:08 20:34:05 48° 73° (ENE) 20:38:06 437.432
M-CUBED/EXP-1 PRIME 24 May 20:32:48 20:36:15 23° 259° (WSW) 20:39:32 437.505
PRISM 24 May 20:39:29 20:42:53 23° 95° (E) 20:46:14 437.425
STRAND 1 24 May 20:40:11 20:45:17 63° 287° (WNW) 20:50:21 437.568
RS-15 24 May 20:43:20 20:53:41 36° 326° (NW) 21:04:33 29.354- 29.394
DOVE 4 24 May 20:45:13 20:48:44 18° 268° (W) 20:52:13 437.250
PCSat 24 May 20:51:40 20:56:35 36° 250° (WSW) 21:01:28 145.827
CANX-2 24 May 20:58:22 21:01:58 28° 264° (W) 21:05:37 2200.000
BEESAT 2 24 May 21:02:19 21:05:41 26° 48° (NE) 21:09:04 435.950
SEEDS 24 May 21:07:38 21:11:24 34° 263° (W) 21:15:14 437.485
CUBEBUG 2 24 May 21:14:12 21:18:38 67° 259° (WSW) 21:22:57 437.445
Oscar 11 24 May 21:15:53 21:20:08 65° 75° (ENE) 21:24:24 145.826/435.025
ZACube-1 24 May 21:23:33 21:27:48 70° 76° (ENE) 21:32:00 437.345
CUTE 1.7 + AOD 2 24 May 21:27:30 21:30:05 16° 268° (W) 21:32:42 437.475
DELFI C3 24 May 21:28:05 21:31:46 39° 72° (ENE) 21:35:30 145.870
O/OREOS (USA 219) 24 May 21:33:40 21:36:37 17° 260° (W) 21:39:33 437.305
CUSAT 1 24 May 21:34:01 21:38:06 15° 56° (NE) 21:41:57 437.405
HO-68 24 May 21:37:02 21:42:39 25° 267° (W) 21:48:19 435.675
GONETS M04 24 May 21:37:10 21:44:52 36° 85° (E) 21:52:32
CINEMA 3 24 May 21:41:40 21:43:54 13° 269° (W) 21:46:06 145.822/145.860
BEESAT 3 24 May 21:43:20 21:47:17 70° 239° (WSW) 21:51:11 437.485
UWE-3 24 May 21:50:18 21:54:22 38° 262° (W) 21:58:21 435.000/436.395/437.385
AIST 1 24 May 21:52:35 21:56:57 77° 97° (E) 22:01:23
Cosmos 2499 24 May 21:54:33 21:59:51 22° 81° (E) 22:05:22 435.465 / 435.565
HUMSAT D 24 May 22:00:56 22:04:48 42° 72° (ENE) 22:08:40 437.325/437.525
COMPASS 1 24 May 22:02:19 22:04:03 12° 270° (W) 22:05:50 437.405
FUNcube-1 24 May 22:03:46 22:07:49 42° 261° (W) 22:11:50 145.935
AAUSAT CUBESAT 2 24 May 22:07:51 22:09:52 13° 269° (W) 22:11:52 437.432
ISS 24 May 22:13:44 22:16:32 26° 135° (SE) 22:19:19 145.825
PRISM 24 May 22:14:34 22:18:10 28° 291° (WNW) 22:21:44 437.425
UNISAT 6 24 May 22:15:38 22:17:54 14° 92° (E) 22:20:12 437.425
TIGRISAT 24 May 22:23:58 22:26:41 16° 93° (E) 22:29:24 435.000
ESTCUBE 1 24 May 22:25:34 22:28:31 17° 64° (ENE) 22:31:29 437.505/2401.250
DANDE 24 May 22:37:54 22:44:31 25° 64° (ENE) 22:50:54 436.750
BEESAT 2 24 May 22:40:02 22:43:31 29° 246° (WSW) 22:46:59 435.950
AIST 2 24 May 22:44:37 22:47:53 22° 46° (NE) 22:51:09 435.215
ANTELSAT 24 May 22:55:34 22:59:35 38° 98° (E) 23:03:38 437.575/2403.000
Oscar 11 24 May 22:55:47 22:56:41 11° 271° (W) 22:57:34 145.826/435.025
50 SAT 24 May 22:56:40 22:59:31 22° 69° (ENE) 23:02:24 437.505
VELOX 1 24 May 23:00:31 23:04:16 27° 68° (ENE) 23:08:02 145.980
CUBEBUG 1 24 May 23:02:11 23:05:57 28° 69° (ENE) 23:09:45 437.445
RS-15 24 May 23:02:29 23:11:16 22° 1° (N) 23:20:14 29.354- 29.394
DELFI C3 24 May 23:04:32 23:06:49 15° 268° (W) 23:09:07 145.870
DX 1 24 May 23:06:29 23:10:09 27° 68° (ENE) 23:13:49 434.975-435.025
CUSAT 1 24 May 23:13:55 23:21:54 70° 78° (ENE) 23:28:39 437.405
GONETS M04 24 May 23:32:53 23:41:22 50° 284° (WNW) 23:49:51
AISAT 24 May 23:35:22 23:39:48 67° 74° (ENE) 23:44:15 437.250
HUMSAT D 24 May 23:38:19 23:40:38 15° 268° (W) 23:42:57 437.325/437.525
DUCHIFAT 1 24 May 23:40:38 23:43:40 19° 94° (E) 23:46:41 145.980
SPROUT 24 May 23:43:59 23:47:44 30° 69° (ENE) 23:51:28 437.525
Cosmos 2499 24 May 23:45:04 23:52:09 63° 281° (WNW) 23:59:46 435.465 / 435.565
ISS 24 May 23:49:48 23:52:52 37° 332° (NNW) 23:55:57 145.825
UNISAT 6 24 May 23:50:45 23:54:54 49° 287° (WNW) 23:59:05 437.425
TIGRISAT 24 May 23:59:32 00:03:33 42° 288° (WNW) 00:07:37 435.000
ESTCUBE 1 25 May 00:00:36 00:04:57 47° 261° (W) 00:09:20 437.505/2401.250
UKube-1 25 May 00:00:59 00:05:19 85° 76° (ENE) 00:09:41 .
PHONESAT 2.4 25 May 00:01:39 00:04:33 35° 159° (SSE) 00:07:27 2401.200-2431.200
BUGSAT 1 25 May 00:12:20 00:15:18 20° 94° (E) 00:18:15 437.445
POPSAT HIP 1 25 May 00:14:13 00:18:19 51° 100° (E) 00:22:23 437.405
QB50P1 25 May 00:14:55 00:19:03 53° 100° (E) 00:23:09 145.935-145.965
QB50P2 25 May 00:16:02 00:20:12 58° 101° (E) 00:24:20 145.880/145.840
POLYITAN 1 25 May 00:18:28 00:22:38 60° 101° (ESE) 00:26:46 437.675
DANDE 25 May 00:19:48 00:28:16 80° 263° (W) 00:36:07 436.750
TISAT 1 25 May 00:20:35 00:23:49 22° 67° (ENE) 00:27:03 437.305
AIST 2 25 May 00:22:38 00:26:31 39° 244° (WSW) 00:30:22 435.215
50 SAT 25 May 00:30:19 00:33:10 22° 265° (W) 00:36:04 437.505
ANTELSAT 25 May 00:33:02 00:36:02 19° 294° (WNW) 00:39:03 437.575/2403.000
NANOSAT C BR1 25 May 00:35:10 00:39:23 88° 107° (ESE) 00:43:33 145.865
VELOX 1 25 May 00:36:48 00:40:39 28° 264° (W) 00:44:31 145.980
CUBEBUG 1 25 May 00:38:26 00:42:10 27° 264° (W) 00:45:58 437.445
DX 1 25 May 00:42:28 00:46:15 28° 264° (W) 00:50:02 434.975-435.025
CUSAT 1 25 May 00:57:17 01:03:06 24° 279° (W) 01:08:21 437.405
Oscar 19 25 May 01:08:28 01:10:52 13° 90° (E) 01:13:15 437.125/150
SWISSCUBE 25 May 01:08:34 01:11:38 17° 63° (ENE) 01:14:42 437.505
SO-50 25 May 01:08:59 01:13:40 48° 117° (ESE) 01:18:23 436.795
ITUPSAT 1 25 May 01:13:02 01:16:04 17° 63° (ENE) 01:19:05 437.325
AISAT 25 May 01:15:19 01:16:42 11° 270° (W) 01:18:06 437.250
DUCHIFAT 1 25 May 01:15:40 01:19:27 34° 290° (WNW) 01:23:12 145.980
RS-15 25 May 01:17:47 01:28:51 37° 35° (NE) 01:39:56 29.354- 29.394
SPROUT 25 May 01:20:12 01:23:40 23° 265° (W) 01:27:09 437.525
ISS 25 May 01:28:09 01:30:01 14° 351° (N) 01:31:53 145.825
JAS-2 25 May 01:31:31 01:38:57 55° 98° (E) 01:45:36 435.910
BEESAT 25 May 01:37:26 01:41:31 29° 68° (ENE) 01:45:37 436.000
PHONESAT 2.4 25 May 01:38:01 01:41:09 80° 174° (S) 01:44:17 2401.200-2431.200
Cosmos 2499 25 May 01:46:05 01:47:11 10° 305° (NW) 01:48:17 435.465 / 435.565
BUGSAT 1 25 May 01:47:09 01:50:45 31° 290° (WNW) 01:54:17 437.445
POPSAT HIP 1 25 May 01:51:27 01:53:40 14° 296° (WNW) 01:55:53 437.405
QB50P1 25 May 01:52:15 01:54:22 14° 296° (WNW) 01:56:29 145.935-145.965
QB50P2 25 May 01:53:39 01:55:31 13° 297° (WNW) 01:57:22 145.880/145.840
TISAT 1 25 May 01:55:29 01:59:17 32° 263° (W) 02:03:06 437.305
POLYITAN 1 25 May 01:56:10 01:57:56 12° 297° (WNW) 01:59:41 437.675
YUBILEINY 25 May 01:58:59 02:03:22 14° 58° (ENE) 02:07:43 435.215
DANDE 25 May 02:05:00 02:09:46 17° 282° (WNW) 02:14:24 436.750
Gurwin Techsat 1B 25 May 02:43:31 02:48:38 46° 99° (E) 02:53:43 435.225
SWISSCUBE 25 May 02:44:22 02:48:59 53° 260° (W) 02:53:40 437.505
Oscar 19 25 May 02:45:32 02:50:42 72° 286° (WNW) 02:55:49 437.125/150
ITUPSAT 1 25 May 02:48:48 02:53:27 54° 260° (W) 02:58:08 437.325
SO-50 25 May 02:50:19 02:54:23 25° 315° (NW) 02:58:28 436.795
Cosmos 2491 25 May 02:55:12 02:59:30 15° 75° (ENE) 03:03:47 435.465 / 435.565
AO-7 25 May 02:55:50 02:58:28 12° 87° (E) 03:01:05 29.400- 29.500
ISS 25 May 03:05:28 03:07:29 15° 12° (NNE) 03:09:30 145.825
PHONESAT 2.4 25 May 03:14:46 03:17:51 60° 192° (SSW) 03:20:56 2401.200-2431.200
BEESAT 25 May 03:15:08 03:19:14 29° 264° (W) 03:23:23 436.000
MOZHAYETS 4 25 May 03:16:04 03:19:51 26° 68° (ENE) 03:23:39
JAS-2 25 May 03:17:02 03:23:29 31° 298° (WNW) 03:29:26 435.910
ITAMSAT 1 25 May 03:20:26 03:25:20 39° 98° (E) 03:30:11 435.822/435.867
KKS-1 25 May 03:22:18 03:26:31 43° 71° (ENE) 03:30:46 437.445
RS-15 25 May 03:30:30 03:42:51 84° 241° (WSW) 03:55:08 29.354- 29.394
YUBILEINY 25 May 03:53:08 04:01:54 72° 81° (E) 04:10:40 435.215
STARS 25 May 04:06:05 04:10:28 66° 74° (ENE) 04:14:51 437.465
